FW0906 Weather Reports


time (UTC)temp
F
wind
direction
speed
knots
gust
knots
rain 1hr
in
rain 24hr
in
rain mn
in
humidity
%
barometer
mb
20240723044534 69 20 0.0 0.0 0.00 0.00 0.00 100 1017.2
20240723043030 69 20 0.0 0.0 0.00 0.00 0.00 100 1017.2
20240723041525 70 20 0.0 0.0 0.00 0.00 0.00 100 1017.2
20240723040021 70 20 0.0 0.0 0.00 0.00 0.00 100 1017.2
20240723034516 70 20 0.0 0.0 0.00 0.00 0.00 100 1017.3
20240723033015 71 20 0.0 0.0 0.00 0.00 0.00 100 1017.2
20240723031510 71 20 0.0 0.0 0.00 0.00 0.00 100 1017.2
20240723030008 72 20 0.0 0.0 0.00 0.00 0.00 100 1017.3
20240723024558 72 20 0.0 0.9 0.00 0.00 0.00 100 1017.3
20240723023054 73 21 0.0 3.5 0.00 0.00 0.00 100 1017.2
20240723021551 74 63 0.0 0.9 0.00 0.00 0.00 100 1017.0
20240723020047 74 67 0.0 0.9 0.00 0.00 0.00 100 1016.7
20240723014544 74 73 0.0 0.9 0.00 0.00 0.00 100 1016.7
20240723013037 75 76 0.0 0.9 0.00 0.00 0.00 100 1016.4
20240723011534 75 76 0.0 0.0 0.00 0.00 0.00 100 1016.3
20240723010037 76 76 0.0 0.9 0.00 0.00 0.00 100 1016.1
20240723004525 76 76 0.0 2.6 0.00 0.00 0.00 100 1016.2
20240723003027 77 76 0.0 0.9 0.00 0.00 0.00 100 1016.2
20240723001515 77 79 0.0 2.6 0.00 0.00 0.00 100 1016.1
20240723000011 77 55 0.0 3.5 0.00 0.00 0.00 100 1016.1
20240722234513 77 22 0.9 3.5 0.00 0.00 0.00 100 1016.1
20240722233002 78 330 0.0 1.7 0.00 0.00 0.00 100 1016.1
20240722231557 78 313 1.7 6.1 0.00 0.00 0.00 100 1016.2
20240722230058 77 236 0.0 4.3 0.00 0.00 0.00 100 1016.2
20240722224548 77 275 1.7 5.2 0.00 0.00 0.00 100 1016.2
20240722223046 78 239 0.0 7.8 0.00 0.00 0.00 100 1016.5
20240722221540 78 313 0.0 4.3 0.00 0.00 0.00 100 1016.3
20240722220035 77 314 3.5 9.6 0.00 0.00 0.00 100 1016.5
20240722214546 78 318 7.8 12.2 0.00 0.00 0.00 100 1016.4
20240722213039 81 302 2.6 7.0 0.00 0.00 0.00 100 1016.2
20240722211531 81 277 4.3 10.4 0.00 0.00 0.00 100 1016.1
20240722210018 81 291 4.3 9.6 0.00 0.00 0.00 100 1016.3
20240722204521 81 286 2.6 7.0 0.00 0.00 0.00 100 1016.4
20240722203017 82 310 3.5 7.0 0.00 0.00 0.00 3 1016.4
20240722201505 83 114 1.7 4.3 0.00 0.00 0.00 32 1016.5
20240722200100 84 350 0.0 3.5 0.00 0.00 0.00 34 1016.7
20240722194558 83 309 0.9 5.2 0.00 0.00 0.00 33 1016.9
20240722193057 84 224 0.0 2.6 0.00 0.00 0.00 33 1017.1
20240722191548 83 251 0.9 6.1 0.00 0.00 0.00 28 1017.2
20240722190043 82 257 2.6 5.2 0.00 0.00 0.00 17 1017.5
20240722184544 80 246 0.0 5.2 0.00 0.00 0.00 4 1017.5
20240722183043 81 244 0.0 3.5 0.00 0.00 0.00 11 1017.7
20240722181530 81 229 0.0 0.9 0.00 0.00 0.00 3 1017.7
20240722180025 81 256 0.9 5.2 0.00 0.00 0.00 1 1017.9
20240722174522 81 295 2.6 7.0 0.00 0.00 0.00 100 1018.0
20240722173017 79 300 2.6 5.2 0.00 0.00 0.00 100 1018.1
20240722171513 79 311 1.7 6.1 0.00 0.00 0.00 100 1018.3
20240722170008 79 336 0.9 7.0 0.00 0.00 0.00 100 1018.5
20240722164505 80 290 2.6 6.1 0.00 0.00 0.00 100 1018.4
20240722163100 80 286 1.7 5.2 0.00 0.00 0.00 9 1018.6
20240722161556 79 30 0.0 3.5 0.00 0.00 0.00 100 1018.7
20240722160052 79 68 2.6 7.0 0.00 0.00 0.00 100 1018.8
20240722154546 79 350 1.7 5.2 0.00 0.00 0.00 100 1019.0
20240722153041 79 24 0.0 6.1 0.00 0.00 0.00 100 1019.0
20240722151546 78 328 0.0 3.5 0.00 0.00 0.00 100 1018.9
20240722150034 78 42 0.0 2.6 0.00 0.00 0.00 100 1018.9
20240722144532 77 24 0.0 0.9 0.00 0.00 0.00 100 1019.0
20240722143024 75 73 0.0 0.9 0.00 0.00 0.00 100 1019.0
20240722141523 74 74 0.0 0.9 0.00 0.00 0.00 100 1019.0
20240722140023 72 73 0.0 1.7 0.00 0.00 0.00 100 1019.0
20240722134511 71 71 0.0 0.9 0.00 0.00 0.00 100 1019.0
20240722133007 69 71 0.0 2.6 0.00 0.00 0.00 100 1019.0
20240722131503 68 71 0.0 2.6 0.00 0.00 0.00 100 1019.0
20240722130100 67 76 0.0 4.3 0.00 0.00 0.00 100 1018.9
20240722124559 67 64 0.0 3.5 0.00 0.00 0.00 100 1018.8
20240722123101 66 71 0.9 2.6 0.00 0.00 0.00 100 1018.6
20240722121618 66 71 0.0 1.7 0.00 0.00 0.00 100 1018.5
20240722120041 66 71 1.7 3.5 0.00 0.00 0.00 100 1018.4
20240722114539 65 73 0.9 3.5 0.00 0.00 0.00 100 1018.3
20240722113033 65 73 0.0 2.6 0.00 0.00 0.00 100 1018.4
20240722111529 65 73 0.0 0.9 0.00 0.00 0.00 100 1018.4
20240722110023 65 73 0.0 0.9 0.00 0.00 0.00 100 1018.6
20240722104520 65 73 0.0 0.0 0.00 0.00 0.00 100 1018.5
20240722103015 65 73 0.0 0.0 0.00 0.00 0.00 100 1018.4
20240722101511 65 73 0.0 0.0 0.00 0.00 0.00 100 1018.5
20240722100006 65 73 0.0 0.0 0.00 0.00 0.00 100 1018.6
20240722094502 65 73 0.0 0.0 0.00 0.00 0.00 100 1018.6
20240722093058 65 73 0.0 0.0 0.00 0.00 0.00 100 1018.6
20240722091556 66 73 0.0 0.0 0.00 0.00 0.00 100 1018.6
20240722090048 66 73 0.0 0.0 0.00 0.00 0.00 100 1018.5
20240722084544 66 73 0.0 0.0 0.00 0.00 0.00 100 1018.5
20240722083042 66 73 0.0 0.0 0.00 0.00 0.00 100 1018.7
20240722081536 66 73 0.0 0.0 0.00 0.00 0.00 100 1018.6
20240722080030 67 73 0.0 0.0 0.00 0.00 0.00 100 1018.6
20240722074527 67 73 0.0 0.0 0.00 0.00 0.00 100 1018.7
20240722073023 67 73 0.0 0.0 0.00 0.00 0.00 100 1018.7
20240722071518 67 73 0.0 0.0 0.00 0.00 0.00 100 1018.8
20240722070014 68 73 0.0 0.9 0.00 0.00 0.00 100 1018.9
20240722064512 68 77 0.0 0.0 0.00 0.00 0.00 100 1019.1
20240722063008 68 77 0.0 1.7 0.00 0.00 0.00 100 1019.2
20240722061603 69 77 0.0 0.0 0.00 0.00 0.00 100 1019.4
20240722060058 69 77 0.0 0.9 0.00 0.00 0.00 100 1019.5
20240722054551 69 77 0.9 4.3 0.00 0.00 0.00 100 1019.6
20240722053047 70 76 0.0 3.5 0.00 0.00 0.00 100 1019.7
20240722051543 70 76 0.9 3.5 0.00 0.00 0.00 100 1019.8
20240722050040 70 76 0.0 2.6 0.00 0.00 0.00 100 1019.9